Precipitable_Water
0.57 0.61 0.69 0.78 0.88 1.02 1.13 1.22 1.30 1.33 1.40 1.39 1.38 1.38 1.31 1.26 1.27 1.30 1.26 1.20 1.18 1.12 1.05 1.03 1.09 1.06 1.15 1.20 1.13 1.40 1.36 1.32
0.50 0.53 0.58 0.64 0.77 0.92 0.96 1.03 1.05 1.06 1.04 1.08 1.12 1.08 1.06 0.99 1.04 1.08 0.99 0.88 0.71 0.67 0.54 0.56 0.58 0.59 0.62 0.63 0.68 0.76 0.76 0.81
0.44 0.45 0.46 0.50 0.57 0.66 0.80 0.93 0.96 0.91 1.03 0.98 0.97 0.97 0.90 0.80 0.76 0.67 0.55 0.49 0.41 0.39 0.38 0.36 0.36 0.35 0.34 0.34 0.36 0.35 0.41 0.46
0.41 0.43 0.43 0.43 0.42 0.43 0.47 0.54 0.59 0.64 0.66 0.64 0.63 0.57 0.59 0.48 0.36 0.33 0.32 0.29 0.27 0.26 0.25 0.25 0.24 0.24 0.22 0.23 0.24 0.23 0.20 0.31
0.45 0.45 0.44 0.43 0.42 0.43 0.40 0.38 0.36 0.35 0.35 0.32 0.29 0.26 0.24 0.26 0.25 0.25 0.24 0.25 0.24 0.24 0.24 0.24 0.23 0.24 0.22 0.23 0.24 0.23 0.22 0.20
0.49 0.47 0.45 0.45 0.43 0.40 0.38 0.34 0.32 0.30 0.29 0.27 0.24 0.21 0.22 0.23 0.22 0.21 0.23 0.23 0.24 0.24 0.25 0.25 0.25 0.26 0.27 0.27 0.26 0.26 0.28 0.28
0.50 0.48 0.43 0.39 0.39 0.36 0.32 0.28 0.26 0.26 0.24 0.23 0.20 0.19 0.20 0.18 0.18 0.18 0.19 0.21 0.22 0.24 0.25 0.25 0.25 0.26 0.26 0.28 0.29 0.29 0.29 0.30
0.47 0.42 0.36 0.34 0.33 0.32 0.29 0.26 0.24 0.25 0.23 0.21 0.21 0.20 0.19 0.18 0.18 0.18 0.18 0.19 0.21 0.23 0.25 0.25 0.25 0.27 0.29 0.30 0.29 0.29 0.29 0.28
0.48 0.41 0.36 0.33 0.31 0.29 0.27 0.25 0.24 0.24 0.23 0.23 0.22 0.21 0.19 0.20 0.20 0.19 0.20 0.21 0.22 0.25 0.25 0.26 0.27 0.28 0.29 0.30 0.29 0.28 0.29 0.29
0.51 0.47 0.39 0.34 0.31 0.28 0.25 0.24 0.24 0.25 0.24 0.23 0.20 0.20 0.20 0.19 0.20 0.21 0.21 0.22 0.22 0.24 0.25 0.25 0.27 0.28 0.28 0.27 0.27 0.27 0.28 0.29
0.53 0.49 0.46 0.39 0.31 0.29 0.28 0.27 0.26 0.26 0.24 0.22 0.20 0.20 0.21 0.20 0.21 0.20 0.21 0.23 0.24 0.24 0.25 0.26 0.27 0.28 0.27 0.26 0.26 0.27 0.27 0.28
0.53 0.50 0.46 0.40 0.33 0.30 0.29 0.28 0.26 0.24 0.23 0.23 0.21 0.21 0.20 0.20 0.20 0.21 0.22 0.24 0.25 0.24 0.25 0.26 0.26 0.26 0.25 0.25 0.25 0.26 0.25 0.26
0.52 0.51 0.48 0.43 0.34 0.31 0.30 0.28 0.25 0.24 0.23 0.23 0.21 0.20 0.20 0.19 0.20 0.22 0.23 0.23 0.25 0.25 0.25 0.25 0.25 0.24 0.25 0.25 0.24 0.25 0.25 0.25
0.52 0.51 0.49 0.46 0.37 0.31 0.30 0.29 0.25 0.24 0.23 0.22 0.20 0.19 0.19 0.19 0.21 0.22 0.23 0.23 0.23 0.24 0.24 0.24 0.25 0.24 0.25 0.24 0.24 0.24 0.25 0.26
0.52 0.51 0.49 0.45 0.38 0.34 0.31 0.30 0.28 0.25 0.23 0.22 0.19 0.19 0.20 0.21 0.22 0.22 0.22 0.23 0.23 0.23 0.24 0.24 0.25 0.25 0.24 0.24 0.25 0.25 0.26 0.26
0.49 0.48 0.47 0.44 0.40 0.37 0.35 0.32 0.29 0.26 0.23 0.21 0.20 0.21 0.22 0.22 0.22 0.22 0.23 0.23 0.23 0.23 0.24 0.24 0.25 0.24 0.24 0.24 0.25 0.25 0.25 0.25
0.48 0.49 0.50 0.48 0.43 0.39 0.36 0.33 0.30 0.27 0.23 0.21 0.21 0.21 0.21 0.21 0.21 0.22 0.22 0.22 0.23 0.23 0.23 0.23 0.24 0.23 0.24 0.25 0.24 0.25 0.25 0.24
0.46 0.49 0.52 0.51 0.47 0.42 0.36 0.34 0.32 0.27 0.24 0.23 0.21 0.21 0.20 0.20 0.21 0.21 0.21 0.21 0.22 0.22 0.22 0.23 0.22 0.23 0.23 0.23 0.23 0.23 0.23 0.23
0.48 0.51 0.53 0.52 0.48 0.43 0.39 0.35 0.32 0.29 0.24 0.22 0.21 0.21 0.20 0.20 0.20 0.20 0.21 0.21 0.20 0.21 0.21 0.21 0.22 0.22 0.22 0.22 0.22 0.22 0.22 0.22
Wind_Speed
13 12 11 11 11 12 12 13 13 14 14 14 13 12 12 13 12 13 14 15 16 18 20 21 22 23 23 25 27 28 29 32
15 13 12 11 11 12 13 13 14 15 16 14 13 13 12 12 11 13 15 17 18 19 19 20 21 22 23 25 26 28 30 32
16 15 13 12 11 11 12 13 13 14 14 13 13 12 12 12 13 14 15 16 16 17 17 18 19 20 21 23 24 26 28 29
18 16 15 14 12 12 11 11 11 11 11 11 11 11 12 12 12 12 13 14 15 16 17 18 19 20 21 23 24 25 27 28
19 17 16 15 14 13 12 11 10 10 10 10 10 9 9 10 10 11 12 13 14 15 15 17 18 19 21 22 24 25 26 26
21 20 18 17 16 14 12 11 10 9 9 9 9 8 9 9 10 10 11 12 13 14 16 17 18 20 21 22 24 25 25 26
23 21 19 18 16 14 13 12 10 9 9 8 8 7 8 8 9 10 11 12 13 15 16 17 18 20 21 23 24 25 26 27
25 22 20 18 17 15 13 12 11 10 9 8 7 7 8 8 9 10 11 12 14 15 16 18 19 21 22 23 25 26 27 28
26 23 20 19 17 16 14 13 12 11 9 8 8 8 8 9 9 10 11 12 14 15 17 18 19 21 22 23 25 26 28 29
27 24 21 19 18 17 15 14 13 11 10 9 8 8 8 9 10 11 12 13 14 16 17 19 20 21 23 25 26 28 29 30
28 26 22 20 18 17 16 15 13 12 11 10 9 9 9 9 10 11 12 13 15 17 18 19 20 22 24 26 27 29 30 31
30 27 23 21 19 18 16 15 14 13 11 10 10 9 9 10 11 12 13 14 15 17 18 19 21 22 25 26 28 30 31 32
31 28 25 22 21 19 18 16 15 13 12 11 11 10 10 11 11 12 14 15 16 17 18 19 21 23 25 27 29 30 31 33
32 29 26 24 22 20 19 17 15 14 13 12 11 11 11 11 12 13 14 14 15 17 18 20 21 23 25 27 29 30 32 34
32 30 28 25 23 21 19 17 16 15 13 13 12 12 11 12 12 13 13 14 16 17 18 20 21 23 25 28 30 31 33 35
34 32 29 27 24 21 19 18 16 15 14 13 12 12 11 11 12 12 13 14 15 17 19 20 21 24 26 29 31 33 34 36
35 34 31 28 25 22 20 19 17 15 14 13 12 12 11 11 11 12 13 14 16 17 19 20 22 24 28 31 33 33 35 37
36 35 33 30 27 23 21 19 17 16 14 13 12 12 11 11 11 12 13 14 16 17 19 21 22 25 28 31 33 33 35 38
36 36 34 31 27 24 21 20 18 16 14 13 12 11 11 11 11 12 13 14 16 17 19 21 23 25 28 31 33 34 36 39
Wind_Direction
233 237 241 244 246 246 247 252 256 261 258 262 264 270 278 282 284 284 294 297 297 297 296 296 295 295 294 294 294 290 289 289
234 238 241 243 248 248 250 253 258 260 261 258 264 265 273 283 283 290 296 299 301 300 300 300 299 299 299 298 297 294 294 295
235 239 242 245 248 250 253 255 257 258 256 255 257 263 272 279 287 295 300 304 308 309 309 308 308 305 306 306 305 301 299 302
232 237 241 245 249 251 254 255 257 253 249 252 256 264 271 280 288 294 303 307 310 311 312 312 312 313 312 312 311 309 306 305
233 236 240 243 245 246 251 250 252 247 248 252 257 263 270 279 287 294 301 308 312 315 317 318 318 318 317 316 316 315 313 311
233 236 239 241 242 244 245 244 245 243 243 246 252 259 270 278 286 294 302 310 317 318 320 320 320 320 320 320 319 319 316 313
233 235 236 235 235 236 239 239 235 238 240 244 249 260 270 280 291 297 304 309 315 320 321 322 323 323 323 322 322 321 320 317
228 228 230 231 231 234 231 229 229 232 235 241 253 263 274 285 293 300 305 310 314 319 323 324 325 326 326 326 325 323 321 319
224 225 225 226 227 227 225 224 225 227 233 243 254 266 277 287 296 302 306 311 315 320 323 325 326 327 328 327 326 325 323 321
220 220 221 222 223 221 220 220 223 228 234 243 255 268 279 289 297 302 307 312 315 320 323 325 326 327 328 328 327 326 325 323
216 216 218 220 219 218 218 220 222 226 234 243 254 266 277 288 296 302 307 311 315 319 321 323 325 327 328 328 327 327 325 323
213 214 215 215 215 216 218 220 222 228 236 243 254 264 277 287 295 301 306 311 315 318 321 323 325 326 328 328 328 327 327 326
209 211 212 214 215 216 218 221 224 230 236 245 254 264 275 286 294 301 307 310 314 318 322 324 325 327 328 328 329 329 328 328
207 209 211 213 215 216 218 222 225 231 237 245 254 264 274 283 293 300 306 310 316 319 322 325 326 328 329 330 330 330 330 329
206 209 212 213 213 214 218 222 226 231 238 245 253 263 273 283 292 299 305 311 315 320 323 326 327 330 331 331 331 331 331 331
207 209 210 212 214 215 218 222 226 232 238 245 253 262 272 281 290 297 305 311 316 320 323 326 328 330 332 332 332 331 332 332
206 208 210 213 215 216 219 222 227 232 238 244 252 260 270 279 288 296 304 310 315 320 324 326 329 330 333 334 334 333 334 334
206 209 211 214 217 217 220 222 225 232 237 242 249 257 266 277 287 297 305 311 316 320 325 327 329 331 334 335 336 335 335 336
208 210 212 215 216 217 219 220 224 230 234 239 246 254 265 276 287 297 305 312 318 321 325 328 329 331 335 336 337 337 337 337